UAL103 KSEA-KLAX

Flight info

Callsign UAL103
Flight time 2h 12m
Altitude 37000
Route SUMMA2 LKV J5 FMG J7 REBRG IRNMN2
Aircraft A320/M-SDE3FGHIRWY/LB1

Departure

Time 2026-05-04 18:54
Airport Seattle–Tacoma International Airport (KSEA)

Arrival

Time 2026-05-04 21:07
Airport Los Angeles International Airport (KLAX)
Time Latitude Longitude Altitude Speed Heading
2026-05-04 18:26 47.44961 -122.30412 410 ft 0 kts 163°
2026-05-04 18:43 47.44964 -122.30414 409 ft 3 kts 163°
2026-05-04 18:44 47.44989 -122.30426 409 ft 4 kts 164°
2026-05-04 18:44 47.45006 -122.30432 408 ft 4 kts 172°
2026-05-04 18:44 47.45037 -122.30422 409 ft 4 kts 236°
2026-05-04 18:44 47.45043 -122.30394 414 ft 1 kts 272°
2026-05-04 18:45 47.45043 -122.30388 414 ft 1 kts 272°
2026-05-04 18:49 47.45043 -122.30396 414 ft 2 kts 272°
2026-05-04 18:49 47.45044 -122.30443 414 ft 7 kts 272°
2026-05-04 18:49 47.45044 -122.30541 411 ft 12 kts 270°
2026-05-04 18:49 47.45086 -122.30626 414 ft 10 kts 352°
2026-05-04 18:50 47.45142 -122.30627 411 ft 6 kts
2026-05-04 18:50 47.45164 -122.30626 409 ft 2 kts
2026-05-04 18:50 47.45168 -122.30626 410 ft 0 kts 359°
2026-05-04 18:51 47.45170 -122.30626 413 ft 1 kts 359°
2026-05-04 18:51 47.45188 -122.30627 412 ft 4 kts 359°
2026-05-04 18:51 47.45222 -122.30627 416 ft 6 kts 359°
2026-05-04 18:51 47.45270 -122.30625 419 ft 8 kts
2026-05-04 18:52 47.45337 -122.30625 418 ft 12 kts 359°
2026-05-04 18:52 47.45431 -122.30624 424 ft 15 kts
2026-05-04 18:52 47.45555 -122.30624 429 ft 20 kts
2026-05-04 18:52 47.45715 -122.30622 430 ft 27 kts 359°
2026-05-04 18:53 47.45896 -122.30623 434 ft 27 kts 359°
2026-05-04 18:53 47.46111 -122.30618 433 ft 35 kts 360°
2026-05-04 18:53 47.46264 -122.30628 433 ft 14 kts 340°
2026-05-04 18:53 47.46272 -122.30769 433 ft 19 kts 215°
2026-05-04 18:54 47.46118 -122.30778 438 ft 41 kts 181°
2026-05-04 18:54 47.45576 -122.30781 425 ft 116 kts 180°
2026-05-04 18:54 47.44546 -122.30783 493 ft 169 kts 181°
2026-05-04 18:54 47.43376 -122.30803 1362 ft 170 kts 182°
2026-05-04 18:55 47.42183 -122.30811 2322 ft 177 kts 181°
2026-05-04 18:55 47.39469 -122.30812 3115 ft 216 kts 180°
2026-05-04 18:55 47.37882 -122.30819 3427 ft 240 kts 182°
2026-05-04 18:56 47.36124 -122.30839 3907 ft 264 kts 181°
2026-05-04 18:56 47.34242 -122.30861 4509 ft 276 kts 181°
2026-05-04 18:56 47.32301 -122.30882 5338 ft 281 kts 181°
2026-05-04 18:56 47.30328 -122.30905 6212 ft 285 kts 180°
2026-05-04 18:57 47.28329 -122.30928 7027 ft 290 kts 180°
2026-05-04 18:57 47.26301 -122.30955 7868 ft 294 kts 180°
2026-05-04 18:57 47.24256 -122.30819 8737 ft 296 kts 167°
2026-05-04 18:57 47.22354 -122.29656 9514 ft 299 kts 150°
2026-05-04 18:58 47.20468 -122.28344 10251 ft 304 kts 156°
2026-05-04 18:58 47.18415 -122.27191 10491 ft 328 kts 159°
2026-05-04 18:58 47.16177 -122.26081 10691 ft 349 kts 161°
2026-05-04 18:58 47.13834 -122.24972 11240 ft 357 kts 161°
2026-05-04 18:59 47.11450 -122.23845 11854 ft 362 kts 161°
2026-05-04 18:59 47.09045 -122.22679 12538 ft 366 kts 160°
2026-05-04 18:59 47.06617 -122.21474 13178 ft 371 kts 160°
2026-05-04 18:59 47.04158 -122.20231 13818 ft 375 kts 160°
2026-05-04 19:00 47.01680 -122.18968 14387 ft 379 kts 160°
2026-05-04 19:00 46.99177 -122.17688 14954 ft 383 kts 160°
2026-05-04 19:00 46.96651 -122.16399 15530 ft 386 kts 160°
2026-05-04 19:00 46.94098 -122.15102 16077 ft 390 kts 160°
2026-05-04 19:01 46.91521 -122.13794 16640 ft 393 kts 160°
2026-05-04 19:01 46.88919 -122.12476 17214 ft 397 kts 160°
2026-05-04 19:01 46.86298 -122.11150 17807 ft 401 kts 159°
2026-05-04 19:01 46.83653 -122.09814 18350 ft 405 kts 160°
2026-05-04 19:02 46.81013 -122.08480 18851 ft 408 kts 159°
2026-05-04 19:02 46.78315 -122.07121 19372 ft 412 kts 159°
2026-05-04 19:02 46.75596 -122.05754 19883 ft 416 kts 160°
2026-05-04 19:02 46.72847 -122.04378 20396 ft 420 kts 159°
2026-05-04 19:03 46.70073 -122.02991 20905 ft 424 kts 159°
2026-05-04 19:03 46.67270 -122.01586 21381 ft 428 kts 159°
2026-05-04 19:03 46.64456 -122.00173 21889 ft 431 kts 159°
2026-05-04 19:03 46.61608 -121.98756 22384 ft 434 kts 160°
2026-05-04 19:04 46.58704 -121.97454 22841 ft 439 kts 162°
2026-05-04 19:04 46.55750 -121.96276 23299 ft 443 kts 163°
2026-05-04 19:04 46.52742 -121.95164 23683 ft 447 kts 164°
2026-05-04 19:04 46.49718 -121.94082 24068 ft 449 kts 164°
2026-05-04 19:05 46.46677 -121.92986 24460 ft 451 kts 163°
2026-05-04 19:05 46.43629 -121.91858 24838 ft 453 kts 163°
2026-05-04 19:05 46.40570 -121.90697 25208 ft 455 kts 163°
2026-05-04 19:05 46.37506 -121.89513 25578 ft 457 kts 162°
2026-05-04 19:06 46.34418 -121.88314 25930 ft 460 kts 163°
2026-05-04 19:06 46.31327 -121.87118 26302 ft 462 kts 163°
2026-05-04 19:06 46.28215 -121.85917 26662 ft 464 kts 163°
2026-05-04 19:06 46.25080 -121.84717 27021 ft 466 kts 163°
2026-05-04 19:07 46.21973 -121.83537 27384 ft 468 kts 163°
2026-05-04 19:07 46.18774 -121.82329 27746 ft 470 kts 163°
2026-05-04 19:07 46.15640 -121.81146 28083 ft 472 kts 163°
2026-05-04 19:07 46.12453 -121.79940 28418 ft 475 kts 163°
2026-05-04 19:08 46.09256 -121.78726 28767 ft 476 kts 162°
2026-05-04 19:08 46.06048 -121.77509 29102 ft 478 kts 162°
2026-05-04 19:08 46.02824 -121.76288 29536 ft 478 kts 162°
2026-05-04 19:08 45.99615 -121.75075 30008 ft 476 kts 162°
2026-05-04 19:09 45.96408 -121.73866 30393 ft 476 kts 162°
2026-05-04 19:09 45.93209 -121.72657 30785 ft 475 kts 162°
2026-05-04 19:09 45.90013 -121.71449 31178 ft 474 kts 162°
2026-05-04 19:09 45.86826 -121.70249 31571 ft 474 kts 162°
2026-05-04 19:10 45.83635 -121.69050 31944 ft 474 kts 162°
2026-05-04 19:10 45.80446 -121.67858 32331 ft 474 kts 162°
2026-05-04 19:10 45.77254 -121.66666 32722 ft 473 kts 161°
2026-05-04 19:10 45.74076 -121.65476 33111 ft 473 kts 161°
2026-05-04 19:11 45.70890 -121.64284 33502 ft 472 kts 161°
2026-05-04 19:11 45.67717 -121.63097 33905 ft 472 kts 161°
2026-05-04 19:11 45.64531 -121.61904 34225 ft 472 kts 161°
2026-05-04 19:11 45.61359 -121.60720 34538 ft 472 kts 161°
2026-05-04 19:12 45.59252 -121.59935 34742 ft 472 kts 161°
2026-05-04 19:12 45.52896 -121.57571 35329 ft 472 kts 160°
2026-05-04 19:12 45.49719 -121.56395 35588 ft 472 kts 160°
2026-05-04 19:13 45.46539 -121.55218 35875 ft 473 kts 160°
2026-05-04 19:13 45.43343 -121.54034 36129 ft 474 kts 160°
2026-05-04 19:13 45.40150 -121.52854 36376 ft 474 kts 160°
2026-05-04 19:13 45.36956 -121.51677 36638 ft 474 kts 160°
2026-05-04 19:14 45.33759 -121.50497 36850 ft 476 kts 160°
2026-05-04 19:14 45.27308 -121.48117 36891 ft 483 kts 160°
2026-05-04 19:15 45.20788 -121.45728 36924 ft 484 kts 160°
2026-05-04 19:15 45.14265 -121.43345 36891 ft 484 kts 160°
2026-05-04 19:16 45.07750 -121.40968 36876 ft 483 kts 160°
2026-05-04 19:16 45.01228 -121.38588 36892 ft 483 kts 160°
2026-05-04 19:17 44.94768 -121.36234 36905 ft 483 kts 160°
2026-05-04 19:17 44.88267 -121.33866 36894 ft 483 kts 160°
2026-05-04 19:18 44.81756 -121.31503 36903 ft 483 kts 160°
2026-05-04 19:18 44.75250 -121.29146 36905 ft 482 kts 159°
2026-05-04 19:19 44.68752 -121.26797 36901 ft 482 kts 160°
2026-05-04 19:19 44.62252 -121.24466 36904 ft 482 kts 160°
2026-05-04 19:20 44.55762 -121.22150 36910 ft 482 kts 159°
2026-05-04 19:20 44.49267 -121.19827 36906 ft 481 kts 159°
2026-05-04 19:21 44.42783 -121.17500 36912 ft 481 kts 159°
2026-05-04 19:21 44.36296 -121.15182 36908 ft 481 kts 159°
2026-05-04 19:22 44.29811 -121.12881 36904 ft 481 kts 160°
2026-05-04 19:22 44.23380 -121.10607 36969 ft 481 kts 159°
2026-05-04 19:23 44.16896 -121.08306 36979 ft 481 kts 159°
2026-05-04 19:23 44.10414 -121.06017 36973 ft 480 kts 159°
2026-05-04 19:24 44.03936 -121.03737 36965 ft 480 kts 159°
2026-05-04 19:24 43.97466 -121.01455 36967 ft 479 kts 159°
2026-05-04 19:25 43.91010 -120.99192 36949 ft 478 kts 159°
2026-05-04 19:25 43.84560 -120.96941 36935 ft 477 kts 159°
2026-05-04 19:26 43.78128 -120.94688 36934 ft 476 kts 159°
2026-05-04 19:26 43.71708 -120.92450 36929 ft 476 kts 159°
2026-05-04 19:27 43.65285 -120.90218 36922 ft 475 kts 159°
2026-05-04 19:27 43.58871 -120.87992 36930 ft 474 kts 159°
2026-05-04 19:28 43.52485 -120.85781 36916 ft 474 kts 159°
2026-05-04 19:28 43.46101 -120.83578 36917 ft 473 kts 159°
2026-05-04 19:29 43.39726 -120.81387 36927 ft 471 kts 160°
2026-05-04 19:29 43.33373 -120.79207 36918 ft 470 kts 159°
2026-05-04 19:30 43.27081 -120.77039 36914 ft 469 kts 159°
2026-05-04 19:30 43.20757 -120.74865 36924 ft 468 kts 160°
2026-05-04 19:31 43.14439 -120.72705 36918 ft 468 kts 160°
2026-05-04 19:31 43.08129 -120.70564 36914 ft 467 kts 160°
2026-05-04 19:32 43.01814 -120.68420 36927 ft 466 kts 160°
2026-05-04 19:32 42.95530 -120.66293 36914 ft 465 kts 160°
2026-05-04 19:33 42.89240 -120.64160 36913 ft 465 kts 160°
2026-05-04 19:33 42.82995 -120.62043 36931 ft 465 kts 160°
2026-05-04 19:34 42.76722 -120.59922 36923 ft 464 kts 160°
2026-05-04 19:34 42.70451 -120.57809 36919 ft 464 kts 160°
2026-05-04 19:35 42.64184 -120.55704 36938 ft 463 kts 160°
2026-05-04 19:35 42.57918 -120.53606 36930 ft 463 kts 160°
2026-05-04 19:36 42.51663 -120.51515 36923 ft 463 kts 160°
2026-05-04 19:36 42.45415 -120.49475 36920 ft 463 kts 161°
2026-05-04 19:37 42.39118 -120.47599 36920 ft 463 kts 162°
2026-05-04 19:37 42.32811 -120.45758 36917 ft 463 kts 162°
2026-05-04 19:38 42.26518 -120.43894 36922 ft 463 kts 162°
2026-05-04 19:38 42.20223 -120.42014 36918 ft 463 kts 162°
2026-05-04 19:38 42.17080 -120.41070 37022 ft 463 kts 162°
2026-05-04 19:39 42.13948 -120.40131 37021 ft 463 kts 162°
2026-05-04 19:39 42.07656 -120.38266 37032 ft 463 kts 162°
2026-05-04 19:40 42.01367 -120.36411 36997 ft 463 kts 162°
2026-05-04 19:40 41.95083 -120.34549 36984 ft 462 kts 163°
2026-05-04 19:41 41.88806 -120.32683 36948 ft 462 kts 163°
2026-05-04 19:41 41.82578 -120.30841 36906 ft 461 kts 163°
2026-05-04 19:42 41.76322 -120.29008 36909 ft 460 kts 163°
2026-05-04 19:42 41.70068 -120.27172 36893 ft 459 kts 163°
2026-05-04 19:43 41.63825 -120.25339 36893 ft 459 kts 163°
2026-05-04 19:43 41.57578 -120.23509 36901 ft 459 kts 163°
2026-05-04 19:44 41.51346 -120.21684 36895 ft 458 kts 163°
2026-05-04 19:44 41.45117 -120.19863 36926 ft 458 kts 163°
2026-05-04 19:45 41.38902 -120.18062 36928 ft 458 kts 164°
2026-05-04 19:45 41.32674 -120.16268 36908 ft 458 kts 163°
2026-05-04 19:46 41.26444 -120.14463 36894 ft 458 kts 163°
2026-05-04 19:46 41.20372 -120.12701 36895 ft 457 kts 164°
2026-05-04 19:47 41.14202 -120.10920 36888 ft 457 kts 164°
2026-05-04 19:47 41.07988 -120.09128 36877 ft 456 kts 164°
2026-05-04 19:48 41.01786 -120.07342 36876 ft 456 kts 164°
2026-05-04 19:48 40.95594 -120.05557 36873 ft 455 kts 164°
2026-05-04 19:49 40.89398 -120.03781 36860 ft 455 kts 164°
2026-05-04 19:49 40.83212 -120.02013 36868 ft 454 kts 164°
2026-05-04 19:50 40.77054 -120.00258 36858 ft 454 kts 164°
2026-05-04 19:50 40.70876 -119.98505 36851 ft 454 kts 164°
2026-05-04 19:51 40.64705 -119.96744 36847 ft 453 kts 164°
2026-05-04 19:51 40.58579 -119.95003 36843 ft 453 kts 164°
2026-05-04 19:52 40.52409 -119.93256 36847 ft 454 kts 165°
2026-05-04 19:52 40.46243 -119.91520 36841 ft 453 kts 165°
2026-05-04 19:53 40.40077 -119.89784 36835 ft 453 kts 165°
2026-05-04 19:53 40.33909 -119.88055 36843 ft 453 kts 165°
2026-05-04 19:54 40.27750 -119.86333 36840 ft 453 kts 165°
2026-05-04 19:54 40.21596 -119.84607 36842 ft 452 kts 165°
2026-05-04 19:55 40.15456 -119.82885 36855 ft 452 kts 166°
2026-05-04 19:55 40.09309 -119.81168 36845 ft 451 kts 166°
2026-05-04 19:56 40.03170 -119.79450 36845 ft 451 kts 166°
2026-05-04 19:56 39.97030 -119.77746 36880 ft 451 kts 166°
2026-05-04 19:57 39.90934 -119.76054 36913 ft 451 kts 166°
2026-05-04 19:57 39.84797 -119.74344 36942 ft 451 kts 166°
2026-05-04 19:58 39.78665 -119.72645 36977 ft 451 kts 166°
2026-05-04 19:58 39.72528 -119.70947 36984 ft 451 kts 166°
2026-05-04 19:59 39.66388 -119.69258 36982 ft 450 kts 166°
2026-05-04 19:59 39.60599 -119.67676 36994 ft 450 kts 167°
2026-05-04 20:00 39.54479 -119.66035 37001 ft 449 kts 169°
2026-05-04 20:00 39.48244 -119.65478 37003 ft 450 kts 177°
2026-05-04 20:01 39.43056 -119.65330 37001 ft 449 kts 178°
2026-05-04 20:01 39.36823 -119.65174 37006 ft 447 kts 179°
2026-05-04 20:02 39.30613 -119.65027 37033 ft 446 kts 179°
2026-05-04 20:02 39.24411 -119.64870 37055 ft 445 kts 179°
2026-05-04 20:03 39.18229 -119.64705 37055 ft 444 kts 179°
2026-05-04 20:03 39.12073 -119.64548 37045 ft 443 kts 179°
2026-05-04 20:04 39.05915 -119.64400 37007 ft 442 kts 179°
2026-05-04 20:04 38.99764 -119.64239 37008 ft 442 kts 179°
2026-05-04 20:05 38.93617 -119.64079 37004 ft 442 kts 179°
2026-05-04 20:05 38.87473 -119.63922 36994 ft 442 kts 180°
2026-05-04 20:06 38.81341 -119.63769 36963 ft 441 kts 180°
2026-05-04 20:06 38.75207 -119.63614 36944 ft 441 kts 180°
2026-05-04 20:07 38.69112 -119.63457 36921 ft 441 kts 180°
2026-05-04 20:07 38.62990 -119.63306 36913 ft 440 kts 180°
2026-05-04 20:08 38.56871 -119.63162 36920 ft 439 kts 180°
2026-05-04 20:08 38.50764 -119.63011 36922 ft 439 kts 180°
2026-05-04 20:09 38.44665 -119.62853 36928 ft 438 kts 180°
2026-05-04 20:09 38.38575 -119.62698 36946 ft 437 kts 181°
2026-05-04 20:10 38.32517 -119.62539 36945 ft 434 kts 181°
2026-05-04 20:10 38.26479 -119.62390 36953 ft 433 kts 181°
2026-05-04 20:11 38.20457 -119.62252 36966 ft 432 kts 181°
2026-05-04 20:11 38.14455 -119.62103 36980 ft 431 kts 181°
2026-05-04 20:12 38.08467 -119.61956 36972 ft 430 kts 181°
2026-05-04 20:12 38.02494 -119.61795 36979 ft 429 kts 182°
2026-05-04 20:13 37.96539 -119.61639 36998 ft 427 kts 182°
2026-05-04 20:13 37.90648 -119.61510 37014 ft 426 kts 182°
2026-05-04 20:14 37.84731 -119.61368 37015 ft 425 kts 182°
2026-05-04 20:14 37.78821 -119.61218 37022 ft 423 kts 183°
2026-05-04 20:15 37.72951 -119.61078 37035 ft 421 kts 183°
2026-05-04 20:15 37.67094 -119.60928 37031 ft 420 kts 183°
2026-05-04 20:16 37.61260 -119.60778 37032 ft 419 kts 183°
2026-05-04 20:16 37.55441 -119.60635 37046 ft 417 kts 183°
2026-05-04 20:17 37.49644 -119.60499 37048 ft 416 kts 184°
2026-05-04 20:17 37.43857 -119.60365 37047 ft 415 kts 184°
2026-05-04 20:18 37.38087 -119.60220 37054 ft 414 kts 184°
2026-05-04 20:18 37.32333 -119.60073 37059 ft 413 kts 184°
2026-05-04 20:19 37.26593 -119.59929 37058 ft 412 kts 184°
2026-05-04 20:19 37.20865 -119.59790 37047 ft 411 kts 185°
2026-05-04 20:20 37.15190 -119.59656 37058 ft 410 kts 184°
2026-05-04 20:20 37.09490 -119.59528 37065 ft 409 kts 185°
2026-05-04 20:21 37.03814 -119.59579 37074 ft 407 kts 186°
2026-05-04 20:21 36.95336 -119.59801 37079 ft 406 kts 186°
2026-05-04 20:22 36.89697 -119.59915 37091 ft 405 kts 186°
2026-05-04 20:22 36.84070 -119.60011 37092 ft 404 kts 186°
2026-05-04 20:23 36.78455 -119.60099 37093 ft 403 kts 186°
2026-05-04 20:23 36.72842 -119.60188 37091 ft 403 kts 186°
2026-05-04 20:24 36.67241 -119.60290 37088 ft 403 kts 186°
2026-05-04 20:24 36.61634 -119.60394 37086 ft 403 kts 186°
2026-05-04 20:25 36.56035 -119.60489 37076 ft 402 kts 186°
2026-05-04 20:25 36.50436 -119.60583 37089 ft 402 kts 187°
2026-05-04 20:26 36.44851 -119.60680 37096 ft 401 kts 187°
2026-05-04 20:26 36.39272 -119.60777 37100 ft 401 kts 186°
2026-05-04 20:27 36.33730 -119.60870 37083 ft 401 kts 187°
2026-05-04 20:27 36.28316 -119.60964 37091 ft 400 kts 187°
2026-05-04 20:28 36.22743 -119.61053 37093 ft 400 kts 187°
2026-05-04 20:28 36.17182 -119.61144 37093 ft 400 kts 187°
2026-05-04 20:29 36.11617 -119.61242 37063 ft 400 kts 187°
2026-05-04 20:29 36.06061 -119.61342 37067 ft 399 kts 187°
2026-05-04 20:30 36.00505 -119.61436 37072 ft 399 kts 187°
2026-05-04 20:30 35.95142 -119.62587 37064 ft 388 kts 201°
2026-05-04 20:31 35.89975 -119.64551 37047 ft 389 kts 201°
2026-05-04 20:31 35.84803 -119.66493 37052 ft 389 kts 201°
2026-05-04 20:32 35.79620 -119.68429 37055 ft 389 kts 201°
2026-05-04 20:32 35.74479 -119.70356 37052 ft 389 kts 201°
2026-05-04 20:33 35.69295 -119.72293 37050 ft 389 kts 201°
2026-05-04 20:33 35.64031 -119.73914 37024 ft 392 kts 196°
2026-05-04 20:34 35.58668 -119.75220 37027 ft 393 kts 196°
2026-05-04 20:34 35.53300 -119.76525 37031 ft 393 kts 196°
2026-05-04 20:35 35.47924 -119.77822 37026 ft 394 kts 196°
2026-05-04 20:35 35.42551 -119.79132 37009 ft 394 kts 196°
2026-05-04 20:36 35.37167 -119.80436 37012 ft 395 kts 196°
2026-05-04 20:36 35.31713 -119.81394 37017 ft 403 kts 184°
2026-05-04 20:37 35.28897 -119.80928 37013 ft 414 kts 172°
2026-05-04 20:37 35.26206 -119.79669 37012 ft 428 kts 160°
2026-05-04 20:37 35.23699 -119.77611 37010 ft 439 kts 151°
2026-05-04 20:37 35.21278 -119.75334 36981 ft 439 kts 151°
2026-05-04 20:38 35.16426 -119.70776 36992 ft 440 kts 151°
2026-05-04 20:38 35.11561 -119.66231 37005 ft 440 kts 151°
2026-05-04 20:39 35.06691 -119.61702 37005 ft 440 kts 152°
2026-05-04 20:39 35.01810 -119.57174 37004 ft 440 kts 152°
2026-05-04 20:40 34.96932 -119.52648 36994 ft 440 kts 152°
2026-05-04 20:40 34.92055 -119.48125 37018 ft 440 kts 152°
2026-05-04 20:41 34.87310 -119.43796 36835 ft 438 kts 153°
2026-05-04 20:41 34.84858 -119.41609 36158 ft 435 kts 155°
2026-05-04 20:41 34.82416 -119.39444 35157 ft 434 kts 155°
2026-05-04 20:42 34.79971 -119.37282 34121 ft 435 kts 156°
2026-05-04 20:42 34.77550 -119.35136 32954 ft 436 kts 156°
2026-05-04 20:42 34.75108 -119.32961 31927 ft 433 kts 156°
2026-05-04 20:42 34.72689 -119.30805 31076 ft 426 kts 156°
2026-05-04 20:43 34.70317 -119.28706 30266 ft 418 kts 157°
2026-05-04 20:43 34.67977 -119.26653 29318 ft 411 kts 157°
2026-05-04 20:43 34.65666 -119.24637 28253 ft 406 kts 157°
2026-05-04 20:43 34.63379 -119.22652 27294 ft 402 kts 157°
2026-05-04 20:44 34.61109 -119.20704 26336 ft 399 kts 156°
2026-05-04 20:44 34.58842 -119.18771 25490 ft 396 kts 156°
2026-05-04 20:44 34.56596 -119.16853 24660 ft 394 kts 155°
2026-05-04 20:44 34.54365 -119.14928 23872 ft 393 kts 155°
2026-05-04 20:45 34.52149 -119.12980 23019 ft 392 kts 153°
2026-05-04 20:45 34.49960 -119.11035 22165 ft 389 kts 152°
2026-05-04 20:45 34.47791 -119.09098 21358 ft 385 kts 152°
2026-05-04 20:45 34.45651 -119.07186 20569 ft 381 kts 151°
2026-05-04 20:46 34.43533 -119.05301 19795 ft 376 kts 150°
2026-05-04 20:46 34.41423 -119.03450 19054 ft 372 kts 149°
2026-05-04 20:46 34.39331 -119.01638 18335 ft 368 kts 149°
2026-05-04 20:46 34.37258 -118.99853 17507 ft 363 kts 149°
2026-05-04 20:47 34.35213 -118.98095 16670 ft 359 kts 149°
2026-05-04 20:47 34.33193 -118.96349 15864 ft 355 kts 148°
2026-05-04 20:47 34.31213 -118.94580 15072 ft 351 kts 147°
2026-05-04 20:47 34.29275 -118.92811 14280 ft 348 kts 147°
2026-05-04 20:48 34.27357 -118.91051 13511 ft 344 kts 146°
2026-05-04 20:48 34.25458 -118.89312 12652 ft 341 kts 147°
2026-05-04 20:48 34.24209 -118.88167 12082 ft 340 kts 147°
2026-05-04 20:48 34.21771 -118.85920 11696 ft 317 kts 147°
2026-05-04 20:49 34.20058 -118.84336 11337 ft 305 kts 145°
2026-05-04 20:49 34.18381 -118.82794 10781 ft 302 kts 148°
2026-05-04 20:49 34.17273 -118.81780 10390 ft 302 kts 146°
2026-05-04 20:49 34.15638 -118.80226 10112 ft 300 kts 143°
2026-05-04 20:50 34.14044 -118.78552 10044 ft 305 kts 140°
2026-05-04 20:50 34.12471 -118.76821 10048 ft 306 kts 140°
2026-05-04 20:50 34.10921 -118.75095 10046 ft 301 kts 140°
2026-05-04 20:50 34.09383 -118.73385 9977 ft 300 kts 141°
2026-05-04 20:51 34.07852 -118.71696 9850 ft 298 kts 141°
2026-05-04 20:51 34.06327 -118.70020 9728 ft 294 kts 141°
2026-05-04 20:51 34.04833 -118.68370 9606 ft 289 kts 138°
2026-05-04 20:51 34.03607 -118.66460 9473 ft 290 kts 122°
2026-05-04 20:52 34.02830 -118.64209 9338 ft 294 kts 105°
2026-05-04 20:52 34.02527 -118.61784 9208 ft 292 kts 96°
2026-05-04 20:52 34.02306 -118.59346 9079 ft 293 kts 97°
2026-05-04 20:52 34.02080 -118.56909 8945 ft 293 kts 97°
2026-05-04 20:53 34.01849 -118.54472 8764 ft 293 kts 97°
2026-05-04 20:53 34.01612 -118.51988 8179 ft 301 kts 97°
2026-05-04 20:53 34.01372 -118.49465 7758 ft 302 kts 97°
2026-05-04 20:53 34.01138 -118.46983 7585 ft 294 kts 96°
2026-05-04 20:54 34.01205 -118.44570 7396 ft 287 kts 79°
2026-05-04 20:54 34.01598 -118.42228 7001 ft 289 kts 77°
2026-05-04 20:54 34.02011 -118.39848 6629 ft 291 kts 77°
2026-05-04 20:54 34.02432 -118.37439 6259 ft 288 kts 78°
2026-05-04 20:55 34.02815 -118.35151 6011 ft 272 kts 80°
2026-05-04 20:55 34.03198 -118.32984 6003 ft 252 kts 78°
2026-05-04 20:55 34.03587 -118.30986 6008 ft 237 kts 77°
2026-05-04 20:55 34.03955 -118.29105 5859 ft 229 kts 77°
2026-05-04 20:56 34.04326 -118.27251 5496 ft 225 kts 77°
2026-05-04 20:56 34.04695 -118.25443 5135 ft 219 kts 78°
2026-05-04 20:56 34.05054 -118.23676 4788 ft 215 kts 78°
2026-05-04 20:56 34.05415 -118.21927 4418 ft 215 kts 78°
2026-05-04 20:57 34.05789 -118.20193 4073 ft 213 kts 78°
2026-05-04 20:57 34.06160 -118.18482 3982 ft 210 kts 78°
2026-05-04 20:57 34.06535 -118.16768 3988 ft 214 kts 77°
2026-05-04 20:57 34.06891 -118.15024 3990 ft 212 kts 86°
2026-05-04 20:58 34.06761 -118.13377 4020 ft 187 kts 112°
2026-05-04 20:58 34.06122 -118.12117 3967 ft 168 kts 139°
2026-05-04 20:58 34.05226 -118.11358 3963 ft 152 kts 162°
2026-05-04 20:58 34.04234 -118.11066 4006 ft 144 kts 184°
2026-05-04 20:59 34.03261 -118.11151 4000 ft 139 kts 193°
2026-05-04 20:59 34.02294 -118.11279 3995 ft 140 kts 195°
2026-05-04 20:59 34.01335 -118.11401 3991 ft 138 kts 192°
2026-05-04 20:59 34.00377 -118.11522 3993 ft 138 kts 193°
2026-05-04 21:00 33.99477 -118.11820 3993 ft 133 kts 210°
2026-05-04 21:00 33.98721 -118.12427 3991 ft 130 kts 226°
2026-05-04 21:00 33.98163 -118.13277 3983 ft 130 kts 246°
2026-05-04 21:00 33.97961 -118.14333 3999 ft 131 kts 258°
2026-05-04 21:01 33.97786 -118.15411 3999 ft 130 kts 260°
2026-05-04 21:01 33.97642 -118.16492 3941 ft 131 kts 261°
2026-05-04 21:01 33.97515 -118.17585 3814 ft 131 kts 261°
2026-05-04 21:01 33.97396 -118.18674 3654 ft 132 kts 262°
2026-05-04 21:02 33.97283 -118.19758 3500 ft 130 kts 262°
2026-05-04 21:02 33.97171 -118.20843 3329 ft 131 kts 263°
2026-05-04 21:02 33.97061 -118.21924 3163 ft 129 kts 262°
2026-05-04 21:02 33.96952 -118.23009 2981 ft 131 kts 262°
2026-05-04 21:03 33.96843 -118.24083 2815 ft 128 kts 261°
2026-05-04 21:03 33.96736 -118.25146 2642 ft 128 kts 262°
2026-05-04 21:03 33.96629 -118.26209 2468 ft 128 kts 262°
2026-05-04 21:03 33.96521 -118.27276 2300 ft 128 kts 261°
2026-05-04 21:04 33.96413 -118.28347 2121 ft 127 kts 261°
2026-05-04 21:04 33.96306 -118.29399 1952 ft 126 kts 261°
2026-05-04 21:04 33.96200 -118.30450 1775 ft 127 kts 262°
2026-05-04 21:04 33.96092 -118.31517 1611 ft 129 kts 261°
2026-05-04 21:05 33.95985 -118.32570 1437 ft 127 kts 262°
2026-05-04 21:05 33.95878 -118.33623 1275 ft 126 kts 262°
2026-05-04 21:05 33.95770 -118.34687 1086 ft 131 kts 264°
2026-05-04 21:05 33.95662 -118.35754 921 ft 126 kts 262°
2026-05-04 21:06 33.95554 -118.36811 742 ft 128 kts 263°
2026-05-04 21:06 33.95454 -118.37863 590 ft 130 kts 263°
2026-05-04 21:06 33.95328 -118.38935 366 ft 130 kts 263°
2026-05-04 21:06 33.95231 -118.39983 212 ft 124 kts 262°
2026-05-04 21:07 33.95124 -118.40993 108 ft 112 kts 261°
2026-05-04 21:07 33.95058 -118.41628 108 ft 34 kts 265°